Location: Alphen
(52.1351°N, 4.6549°E)
Time: 00:42:53
(UTC+00:00)

Cosmos 1544 Rocket - Pass Details

Date: 27 January 2021
Orbit: 605 x 630 km, 82.5° (Epoch: 26 February)

Event Time Altitude Azimuth Distance (km) Brightness Sun altitude
Exits shadow 05:23:25 33° 322° (NW) 1,041 4.3 -19.1°
Drops below altitude 10° 05:26:26 10° 358° (N) 1,976 6.1 -18.6°
Sets 05:28:48 0° 6° (N) 2,889 7.0 -18.3°
